If you wish to contribute or participate in the discussions about articles you are invited to join SKYbrary as a registered user

 Actions

Alesund/Vigra

From SKYbrary Wiki

ENAL
Airport
ICAO: ENAL
Summary
Name Alesund/Vigra
Region Europe
Territory Norway NO.gif
Location Alesund/Vigra
Serving
Coordinates 62° 33' 38.50" N, 6° 6' 40.65" E
Runways
Designator Length Width Surface ROPS
7/25 2314 m7,591.864 ft
45 m147.638 ft
ASP yes/yes


METAR
Observation ENAL 171350Z 06009KT 9999 SCT061 15/11 Q1010
Station Alesund / Vigra
Date/Time 17 June 2019 13:50:00
Wind direction 60°
Wind speed 09 kts
Lowest cloud amount scattered clouds
Temperature 15°C
Dew point 11°C
Humidity 77%
QNH 1010 hPa
Weather condition n/a


Alesund/Vigra Airport

ICAO: ENAL IATA: AES

Description

Airport serving Alesund, Norway.

Climatology

Temperate Marine climate/Oceanic climate (Köppen climate classification Cfb). Moderately cool summer and comparatively warm winter with a temperature range of only 14°C57.2 °F
287.15 K
516.87 °R
. Prevailing south-westerly winds from the Atlantic Ocean.

Maps

Terrain

Loading map...

Airport Layout

Loading map...


Accidents & Serious Incidents at or in vicinity of ENAL

None on SKYbrary